Wind_Speed
19 18 18 17 16 17 17 17 17 16 16 16 15 14 13 12 10 8 8 7 7 8 8 9 10 11 12 12 13 14 16 17 17 19 20 21 22 24 25 27 28 30 32 32
19 19 20 19 18 18 19 19 20 20 19 17 15 14 14 14 12 11 10 10 10 10 11 11 12 13 14 15 16 17 18 19 20 21 22 23 25 26 28 30 31 32 33 34
20 19 21 20 18 20 21 21 22 23 21 20 18 16 15 15 15 14 13 12 12 13 13 14 15 16 16 17 18 19 20 21 22 23 24 25 27 28 30 31 32 33 35 36
19 18 20 16 19 20 21 22 24 24 22 21 19 18 17 16 16 15 15 14 14 15 16 17 18 18 19 20 21 22 23 23 24 25 26 27 29 30 32 33 34 36 37 37
19 19 18 18 19 21 22 23 25 26 25 23 21 21 21 19 17 16 17 17 17 17 17 18 19 20 21 22 23 24 25 26 26 28 29 30 32 33 34 35 37 38 38 38
20 21 20 20 21 20 23 24 24 25 26 25 24 24 24 22 20 18 17 17 18 19 20 21 22 22 23 24 25 27 28 29 30 31 32 33 34 35 36 38 39 39 39 40
22 22 21 20 21 21 23 24 24 24 25 24 25 25 25 23 21 19 19 19 20 21 22 22 24 25 26 27 28 29 30 31 33 34 35 36 36 37 38 39 41 41 41 41
23 24 22 22 21 21 22 23 23 24 25 26 25 24 25 24 22 21 22 22 23 24 24 25 26 28 29 30 31 32 33 35 36 36 37 38 39 40 40 41 42 42 42 43
23 22 20 19 20 21 22 20 20 21 23 24 25 24 22 22 23 23 24 26 26 28 29 29 30 31 32 33 34 35 36 38 39 39 40 40 42 42 43 43 43 44 44 44
24 23 23 20 20 20 20 21 21 20 20 22 21 20 20 22 25 27 27 29 30 32 32 32 33 34 35 36 37 38 39 40 41 41 42 43 44 45 45 45 46 46 46 46
27 25 24 22 22 21 20 21 21 21 21 21 22 22 23 24 25 27 29 31 32 33 34 35 35 36 37 38 39 40 41 42 43 44 45 45 46 47 47 47 48 48 48 48
26 27 26 25 24 22 21 22 22 22 22 22 22 23 25 26 27 29 31 32 34 35 36 37 38 39 40 41 42 43 44 45 46 46 47 48 49 49 49 49 49 50 49 49
27 26 26 26 24 24 24 23 23 23 24 24 25 26 27 28 30 31 32 34 36 37 38 39 40 41 42 44 45 46 46 47 48 49 50 50 51 51 51 51 51 51 51 51
25 26 27 27 26 26 25 25 25 25 26 27 28 29 30 31 32 33 34 36 37 39 40 41 42 43 44 46 47 48 48 49 50 51 52 53 53 54 54 53 53 52 52 51
25 26 27 28 28 28 27 27 28 28 29 30 31 32 33 34 35 36 37 38 40 41 42 43 44 46 47 48 49 50 51 52 53 53 54 55 55 56 56 55 55 54 52 51
25 26 27 28 28 29 29 29 30 31 32 33 34 35 36 37 38 39 40 41 42 43 44 45 46 48 49 50 51 52 53 55 56 56 57 57 57 57 57 57 56 55 54 52
26 27 27 27 28 30 31 32 33 34 35 36 37 38 38 39 40 41 42 43 44 45 47 48 49 50 51 52 53 55 56 57 57 58 58 59 59 59 59 58 57 56 54 52
27 27 27 28 29 30 32 34 35 36 37 38 39 40 41 42 43 44 45 46 47 48 49 50 51 52 53 54 55 56 57 58 58 58 59 59 59 59 59 57 55 54 52 50
27 27 28 30 31 33 34 36 37 39 40 41 42 43 45 46 47 47 48 49 50 51 52 53 54 54 55 56 56 57 57 58 58 59 59 59 59 58 57 55 53 51 49 46
31 31 32 33 35 36 38 39 41 42 43 44 45 47 48 49 50 50 51 52 53 53 53 54 54 55 55 56 56 56 57 57 57 57 57 56 55 54 52 50 48 46 43 40
33 34 35 37 39 40 41 43 44 45 46 47 48 49 50 51 51 52 52 52 52 53 53 53 53 54 54 54 54 54 54 54 53 53 52 50 48 46 44 42 41 38 36 33
36 37 39 41 42 43 44 45 46 47 48 49 50 50 51 51 51 51 52 52 52 52 51 51 51 51 51 50 50 50 50 49 47 46 44 43 41 38 36 35 33 31 29 27
39 40 41 42 43 44 45 47 48 49 49 49 50 50 50 50 50 50 50 50 49 49 48 47 47 46 46 46 45 44 44 42 41 39 38 36 34 33 31 29 27 25 23 22
42 43 44 45 46 46 47 48 48 48 48 49 49 49 49 48 47 47 47 47 46 45 44 43 43 43 42 40 40 39 38 36 35 34 32 31 30 28 26 24 21 19 18 16
44 44 45 46 46 46 46 46 46 47 47 47 46 46 46 45 44 44 43 42 41 40 39 39 38 37 37 36 35 34 33 32 31 30 28 27 25 23 20 18 16 14 13 12
42 43 44 44 44 44 44 44 44 44 44 43 42 41 40 40 39 39 38 37 37 36 35 34 34 33 33 32 31 31 30 30 29 27 25 22 20 17 14 12 10 9 9 9
42 42 42 42 42 42 42 41 41 40 39 38 37 36 36 36 35 35 34 34 33 33 33 32 32 31 31 30 29 28 27 26 24 23 20 18 14 11 8 7 7 7 8 7
Wind_Direction
278 279 274 267 259 257 259 263 269 271 274 278 281 281 283 288 290 296 303 304 304 300 296 293 292 291 291 291 292 293 294 295 297 301 305 306 308 310 312 313 314 315 314 314
275 272 268 264 260 258 257 259 262 265 269 274 276 279 281 287 293 297 300 301 299 295 291 288 287 285 285 286 287 288 290 293 296 299 302 304 306 308 310 312 313 314 314 313
273 266 261 261 259 255 255 258 259 262 269 271 273 276 281 287 293 295 293 292 291 288 285 283 281 281 281 282 284 287 290 292 295 298 300 302 304 306 309 311 312 313 313 313
270 263 259 257 252 252 256 258 259 263 269 270 271 272 273 278 283 288 288 287 283 280 279 278 278 278 279 281 284 286 289 291 294 297 299 301 303 304 306 308 310 312 313 312
267 266 261 255 255 252 255 258 261 265 267 265 263 266 269 270 272 278 284 282 280 278 277 277 277 277 279 281 283 286 288 290 292 295 297 299 301 303 304 306 308 309 311 311
270 270 266 259 258 256 260 263 268 269 266 263 260 263 270 267 265 268 275 279 280 280 281 280 280 280 281 282 285 287 288 289 290 293 295 298 299 301 303 305 306 308 309 310
273 271 271 266 264 261 263 268 270 271 268 266 258 260 267 265 261 267 275 279 282 283 283 283 283 283 283 284 285 287 289 290 291 292 294 296 298 300 303 304 305 307 308 309
276 274 274 270 271 275 275 277 275 275 273 268 265 265 266 267 266 268 275 281 283 283 284 285 285 285 285 285 285 286 288 290 291 292 294 296 298 300 301 303 304 305 306 307
280 280 278 276 278 280 281 282 284 285 279 271 271 270 269 272 275 276 282 286 286 285 286 287 286 286 286 286 287 288 289 290 291 293 295 297 298 299 300 302 303 304 305 306
282 285 286 283 283 286 287 290 291 290 285 282 284 277 276 277 277 279 282 283 285 286 287 287 286 287 287 287 287 288 290 291 291 293 294 296 297 298 299 300 301 302 303 304
282 285 288 292 292 289 286 288 290 289 287 283 281 282 282 281 280 281 283 284 285 285 286 286 286 286 287 288 288 289 291 291 291 292 294 295 296 297 298 298 299 300 300 301
281 285 289 292 292 291 289 289 288 289 289 288 286 285 286 285 284 283 283 283 284 284 285 285 285 286 287 287 288 289 290 290 290 292 293 293 294 295 296 296 297 298 298 299
282 284 285 287 287 287 285 286 288 288 288 289 289 288 287 286 286 285 285 284 284 284 285 285 286 286 287 288 288 289 289 289 290 291 292 292 293 294 294 294 295 295 296 297
277 280 282 283 284 284 284 285 288 289 289 289 289 288 288 287 287 287 286 286 286 286 286 286 287 287 287 287 288 288 288 289 289 289 290 291 292 292 292 293 293 293 293 294
275 278 280 281 283 283 286 289 291 292 291 290 289 289 289 288 288 288 288 287 287 287 287 287 288 288 288 288 289 289 289 289 289 289 290 290 290 291 291 291 292 291 291 291
272 275 279 282 286 287 290 291 292 292 291 291 290 290 289 289 289 289 289 289 289 289 289 289 289 289 289 289 290 290 290 290 290 290 290 290 290 290 290 290 290 290 290 290
273 276 281 284 285 287 289 290 291 291 290 290 290 290 290 290 290 290 290 291 291 291 291 291 291 291 290 290 290 290 290 290 290 290 290 290 290 289 289 289 289 288 288 287
277 279 282 285 287 288 289 289 289 290 290 291 292 292 292 292 292 292 293 293 293 293 293 292 292 292 291 291 291 291 291 290 290 290 290 289 289 289 288 288 287 287 286 285
286 286 287 289 289 289 289 290 290 291 292 293 293 294 294 294 294 295 295 295 294 294 294 294 293 293 293 292 292 292 291 291 291 290 290 289 289 288 288 287 286 285 284 283
288 289 289 289 289 290 290 291 291 292 293 294 294 295 295 295 296 296 296 296 296 296 296 295 295 295 294 294 293 293 292 292 292 291 290 289 289 288 287 286 285 283 281 279
285 285 286 287 288 289 290 291 292 293 294 294 295 295 296 296 296 297 297 297 297 297 297 297 297 297 296 295 295 295 295 294 293 293 292 291 290 289 288 286 285 281 278 276
285 286 287 288 289 290 291 292 293 294 295 295 296 296 297 297 297 297 298 298 298 298 298 298 298 297 297 298 298 298 298 297 296 296 294 294 292 289 288 287 284 279 275 271
286 287 288 289 290 291 292 293 294 295 295 296 297 297 297 297 298 298 298 298 298 298 298 298 298 299 299 300 301 301 301 300 299 298 296 295 293 290 288 285 281 274 268 265
287 288 289 290 291 292 293 294 295 295 296 296 297 297 297 297 297 297 298 298 299 299 300 300 300 301 302 303 303 303 303 303 302 301 298 297 296 293 288 282 276 268 262 257
288 289 290 291 292 293 294 295 295 296 296 296 296 297 297 297 297 298 299 300 300 301 301 302 302 303 303 304 304 304 305 305 304 303 301 298 295 292 286 278 270 260 251 242
288 290 291 292 293 294 295 295 295 296 296 296 296 297 297 298 299 300 301 301 302 303 303 303 303 304 305 305 304 304 306 307 306 305 302 299 296 292 282 269 259 244 228 229
290 291 293 294 295 296 296 296 297 297 297 298 298 298 298 299 300 301 301 301 302 302 302 303 303 304 305 305 304 305 307 309 309 308 305 302 297 290 276 252 232 219 216 220
Height
5848 5848 5847 5847 5847 5846 5845 5845 5844 5845 5844 5844 5844 5844 5845 5845 5844 5844 5843 5843 5843 5842 5842 5842 5841 5841 5841 5840 5839 5838 5837 5835 5833 5831 5828 5826 5823 5820 5817 5813 5809 5806 5802 5797
5842 5842 5841 5841 5842 5841 5840 5839 5839 5839 5839 5840 5839 5840 5840 5840 5839 5839 5839 5838 5838 5838 5837 5837 5837 5837 5836 5835 5834 5833 5831 5829 5827 5825 5822 5820 5817 5814 5810 5806 5802 5798 5794 5790
5836 5835 5835 5836 5837 5835 5834 5833 5833 5833 5835 5835 5835 5835 5835 5835 5834 5834 5834 5834 5834 5833 5833 5832 5832 5831 5831 5830 5828 5827 5825 5823 5821 5818 5816 5813 5810 5806 5803 5799 5795 5791 5786 5782
5829 5830 5830 5833 5831 5830 5829 5828 5828 5828 5829 5829 5830 5831 5830 5830 5830 5830 5830 5830 5829 5828 5828 5827 5826 5826 5825 5823 5822 5820 5818 5816 5814 5811 5808 5805 5802 5799 5795 5791 5787 5782 5778 5773
5824 5823 5824 5826 5825 5824 5823 5823 5823 5823 5823 5824 5824 5825 5825 5825 5825 5825 5825 5825 5824 5824 5823 5822 5821 5819 5818 5817 5815 5813 5810 5808 5806 5803 5800 5797 5794 5790 5786 5782 5778 5773 5769 5764
5817 5817 5818 5821 5820 5819 5819 5818 5818 5817 5817 5817 5817 5818 5819 5819 5819 5819 5819 5819 5818 5818 5817 5815 5814 5813 5811 5809 5807 5805 5803 5800 5797 5794 5791 5788 5785 5781 5777 5773 5768 5764 5759 5754
5810 5810 5812 5813 5813 5813 5814 5814 5812 5811 5810 5810 5810 5812 5812 5812 5812 5812 5812 5812 5811 5811 5809 5808 5806 5805 5803 5801 5799 5797 5794 5791 5789 5785 5782 5779 5775 5771 5767 5763 5758 5754 5749 5744
5803 5804 5807 5806 5806 5807 5807 5805 5805 5804 5804 5803 5803 5802 5803 5804 5804 5804 5804 5803 5803 5802 5801 5800 5798 5796 5795 5793 5790 5788 5785 5782 5779 5775 5772 5768 5765 5761 5756 5752 5747 5743 5738 5733
5798 5799 5798 5797 5798 5799 5798 5798 5798 5798 5797 5796 5795 5795 5795 5796 5796 5796 5796 5795 5794 5793 5792 5791 5789 5787 5785 5783 5780 5777 5774 5771 5768 5764 5760 5757 5753 5749 5745 5740 5736 5731 5726 5722
5791 5791 5790 5790 5791 5791 5791 5791 5791 5791 5790 5790 5789 5788 5788 5788 5788 5787 5787 5786 5785 5784 5782 5781 5779 5777 5774 5772 5769 5766 5763 5760 5756 5753 5749 5745 5741 5737 5733 5728 5723 5719 5714 5709
5784 5784 5784 5784 5784 5785 5784 5784 5784 5783 5783 5783 5782 5781 5781 5780 5779 5779 5778 5777 5775 5774 5772 5770 5768 5766 5764 5761 5758 5754 5751 5747 5744 5740 5736 5732 5728 5724 5720 5715 5710 5706 5701 5696
5778 5778 5778 5778 5778 5778 5777 5777 5776 5776 5775 5775 5774 5774 5773 5772 5771 5770 5769 5768 5766 5764 5761 5759 5757 5754 5752 5749 5745 5742 5738 5735 5730 5727 5723 5719 5715 5711 5706 5702 5697 5692 5688 5683
5771 5770 5770 5770 5770 5770 5770 5770 5769 5769 5768 5767 5766 5766 5765 5763 5762 5761 5759 5757 5755 5752 5750 5747 5745 5742 5739 5736 5732 5729 5725 5721 5717 5712 5708 5704 5700 5696 5692 5688 5683 5678 5674 5669
5764 5763 5762 5762 5761 5761 5761 5761 5761 5760 5760 5759 5758 5756 5755 5753 5751 5750 5748 5745 5743 5740 5737 5735 5732 5729 5725 5722 5719 5715 5711 5707 5702 5698 5694 5689 5685 5680 5676 5672 5669 5664 5659 5654
5756 5756 5755 5754 5753 5753 5752 5752 5752 5751 5750 5749 5748 5746 5744 5742 5740 5738 5736 5733 5730 5727 5724 5721 5718 5714 5711 5707 5703 5699 5695 5691 5687 5682 5678 5673 5669 5664 5660 5655 5652 5648 5644 5640
5749 5748 5747 5746 5745 5745 5744 5743 5743 5742 5740 5739 5737 5735 5733 5731 5728 5726 5723 5720 5717 5714 5711 5707 5703 5700 5696 5691 5687 5683 5678 5674 5669 5665 5660 5656 5651 5647 5642 5638 5634 5630 5627 5624
5741 5740 5739 5738 5737 5736 5735 5734 5733 5731 5729 5727 5725 5723 5721 5718 5715 5713 5710 5707 5703 5700 5696 5692 5688 5684 5680 5675 5671 5666 5661 5656 5651 5647 5642 5637 5632 5628 5623 5619 5616 5612 5609 5606
5732 5731 5731 5730 5729 5728 5726 5724 5722 5720 5718 5715 5713 5711 5708 5705 5702 5699 5696 5692 5688 5685 5680 5676 5672 5667 5663 5658 5653 5648 5643 5638 5633 5628 5623 5618 5613 5608 5604 5600 5597 5594 5592 5589
5724 5723 5722 5721 5719 5718 5715 5713 5711 5708 5706 5703 5700 5697 5694 5691 5687 5684 5680 5676 5672 5668 5664 5659 5654 5650 5645 5640 5635 5630 5624 5619 5614 5609 5603 5598 5594 5589 5585 5581 5579 5576 5574 5572
5715 5714 5713 5711 5709 5707 5704 5702 5699 5696 5693 5690 5687 5683 5680 5676 5672 5668 5664 5660 5655 5651 5646 5642 5636 5631 5626 5621 5616 5610 5605 5600 5594 5589 5584 5579 5575 5570 5566 5563 5561 5559 5558 5557
5706 5704 5703 5700 5698 5695 5693 5690 5687 5683 5680 5676 5673 5669 5665 5661 5657 5652 5648 5644 5639 5634 5629 5624 5619 5613 5608 5603 5597 5592 5586 5581 5575 5570 5565 5561 5557 5553 5550 5547 5545 5544 5544 5544
5696 5693 5691 5688 5686 5683 5680 5677 5673 5670 5666 5662 5658 5654 5650 5646 5641 5637 5632 5627 5623 5618 5613 5608 5602 5597 5591 5586 5581 5575 5569 5564 5559 5554 5550 5546 5542 5539 5536 5534 5533 5532 5532 5532
5683 5681 5679 5676 5673 5670 5667 5663 5660 5656 5652 5648 5643 5639 5635 5630 5626 5621 5617 5612 5607 5602 5597 5592 5587 5582 5577 5571 5566 5560 5555 5550 5545 5541 5537 5533 5529 5527 5525 5523 5522 5522 5522 5523
5671 5668 5666 5663 5660 5657 5653 5649 5645 5641 5637 5633 5628 5624 5620 5616 5611 5606 5601 5597 5592 5588 5583 5578 5573 5568 5563 5558 5553 5548 5543 5538 5534 5529 5525 5522 5519 5516 5515 5514 5513 5514 5515 5516
5659 5656 5653 5650 5646 5643 5639 5635 5631 5627 5623 5619 5614 5610 5605 5601 5597 5593 5588 5584 5579 5575 5570 5566 5561 5556 5552 5547 5543 5538 5533 5529 5524 5520 5516 5513 5510 5508 5506 5506 5507 5508 5509 5511
5646 5643 5640 5636 5633 5629 5626 5622 5617 5613 5609 5605 5601 5596 5592 5588 5584 5580 5576 5572 5568 5563 5559 5555 5551 5546 5542 5538 5533 5529 5525 5520 5516 5512 5508 5505 5503 5501 5500 5501 5502 5504 5506 5508
5633 5630 5627 5623 5620 5616 5612 5608 5604 5600 5596 5592 5589 5585 5581 5577 5573 5569 5565 5561 5557 5553 5549 5545 5541 5537 5533 5529 5525 5521 5517 5513 5509 5505 5502 5499 5497 5496 5497 5498 5499 5502 5504 5506